Location: Columbus
(29.5618°N, 96.6770°W)
Time: 11:35:43
(UTC-06:00)

Daily predictions for brighter satellites

Satellite Brightness Start Highest point End
(mag) Time Altitude Azimuth Time Altitude Azimuth Time Altitude Azimuth
CZ-3B DEB 1.8 17:42:43 10° WSW 17:45:19 55° NW 17:51:20 10° NE
Meteor 1-5 Rocket 4.3 17:41:57 10° N 17:47:15 52° E 17:52:42 10° SSE
Cosmos 2218 Rocket 4.4 17:44:00 10° NNE 17:49:50 40° E 17:55:34 10° SSE
SKYMED 2 4.4 17:50:03 10° NE 17:53:52 30° E 17:57:41 10° SSE
Cosmos 1455 Rocket 4.0 17:51:44 10° NNE 17:55:27 26° E 17:59:11 10° SE
Delta 2 Rocket 3.8 17:58:01 10° SW 18:01:38 46° SSE 18:05:40 10° ENE
NOSS 3-3 (A) 4.1 17:55:56 10° SSW 18:01:54 62° ESE 18:08:13 10° NE
NOSS 3-3 (C) 4.1 17:56:03 10° SSW 18:02:01 61° ESE 18:08:19 10° NE
SL-8 R/B 4.0 17:59:17 10° WSW 18:04:00 66° NW 18:08:46 10° NE
BREEZE-M DEB (TANK) 3.5 17:59:08 10° NW 18:04:20 47° NE 18:07:51 10° ESE
NOSS 3-1 (A) 4.4 17:56:54 10° NNW 18:04:50 80° WSW 18:13:17 10° SSE
Okean 1 3.7 18:04:27 10° SSE 18:08:14 41° E 18:12:03 10° NNE
Thor Agena Rocket 4.4 18:03:23 10° N 18:08:28 55° WNW 18:13:35 10° SSW
Hubble Space Telescope 1.9 18:09:08 10° W 18:13:04 42° SSW 18:17:00 10° SE
Cosmos 1536 4.4 18:10:55 10° NNW 18:14:44 40° W 18:18:33 10° SSW
ATLAS 2AS CENTAUR R/B 3.4 18:09:28 10° NNW 18:16:52 40° NE 18:23:44 10° ESE
Meteor 1-18 Rocket 4.2 18:12:15 10° S 18:17:49 84° E 18:23:31 10° N
Meteor 1-28 Rocket 4.1 18:15:14 10° NE 18:18:36 30° E 18:21:56 10° SSE
SL-08 R/B 4.5 18:15:55 10° N 18:22:15 72° E 18:28:29 10° SSE
Cosmos 2251 Rocket 3.8 18:18:08 10° N 18:23:16 46° ENE 18:28:20 10° SE
Cosmos 1812 3.2 18:24:46 10° SSW 18:28:35 63° W 18:32:25 10° N
Cosmos 1346 Rocket 2.9 18:25:21 10° S 18:29:08 48° E 18:32:45 11° NNE
SL-27 R/B 2.4 18:28:21 10° N 18:32:01 70° ENE 18:35:36 10° SSE
MSX 3.8 18:26:31 10° SSE 18:32:16 89° WSW 18:38:03 10° NNW
Tiangong 1 0.8 18:29:53 10° WSW 18:32:54 86° NNW 18:34:09 32° NE
CZ-4 R/B 3.6 18:29:50 10° SSW 18:33:30 29° W 18:37:11 10° NW
EP 1 4.4 18:31:46 10° SSW 18:34:38 53° ESE 18:35:19 38° ENE
Nadezhda 3 Rocket 4.0 18:31:33 10° S 18:37:33 57° E 18:43:38 10° NNE
COSMO-SKYMED 1 3.0 18:37:38 10° N 18:41:56 64° WNW 18:46:13 10° SSW
DMSP B5D1-3 4.4 18:36:49 10° NNE 18:41:58 85° ESE 18:47:06 10° SSW
CZ-2C R/B 4.0 18:38:53 10° SSW 18:43:22 37° W 18:48:00 10° NNW
SL-24 R/B - RUBIN 2 4.4 18:37:34 10° SSW 18:43:33 72° ESE 18:48:47 17° NNE
Cosmos 1544 Rocket 4.3 18:39:12 10° NNW 18:43:34 55° W 18:47:54 10° S
GEOS 3 Rocket 3.9 18:39:27 10° ESE 18:44:13 41° NE 18:48:59 10° NNW
Cosmos 2297 3.6 18:50:01 10° SSW 18:55:39 75° ESE 18:59:27 21° NNE
ATLAS 3B CENTAUR R/B 3.6 18:35:55 10° WSW 18:55:56 80° S 19:00:10 29° E
Cosmos 1975 2.8 18:52:00 10° N 18:56:04 84° W 19:00:05 10° S
NOSS 2-1 (D) 3.1 18:56:38 10° SSW 19:00:25 63° ESE 19:00:47 59° E
NOSS 2-1 (C) 3.2 18:57:19 10° SSW 19:01:08 61° ESE 19:01:25 59° E
Meteor 1-19 Rocket 4.1 19:01:43 10° S 19:07:25 77° E 19:12:12 16° NNE
Meteor 2-14 Rocket 4.4 19:02:31 10° N 19:08:37 61° E 19:14:39 10° SSE
Cosmos 2056 Rocket 4.3 19:05:17 10° SSE 19:09:11 33° SE 19:09:11 33° SE
Cosmos 2278 Rocket 3.8 19:07:21 10° SW 19:12:22 32° WNW 19:17:25 10° N
Cosmos 1025 Rocket 3.3 19:11:53 10° S 19:15:21 53° SSE 19:15:21 53° SSE
NOSS 2-1 (E) 3.3 19:15:49 10° SSW 19:19:20 73° SW 19:19:20 73° SW
Okean 1-7 Rocket 4.1 19:17:26 10° SSW 19:21:55 61° W 19:24:15 27° NNW
OTV 4 2.9 19:20:15 10° WNW 19:21:18 20° WNW 19:21:18 20° WNW
FALCON 9 R/B 3.2 19:01:54 10° W 19:24:02 69° NNW 19:26:28 45° NE
Cosmos 1624 Rocket 4.4 19:19:18 10° S 19:23:18 47° SE 19:23:18 47° SE
Meteor 2-21 Rocket 4.4 19:18:15 10° N 19:24:27 85° W 19:30:35 10° S
Cosmos 921 Rocket 3.4 19:20:35 10° SSW 19:24:42 59° WNW 19:25:22 51° NW
Timation 1 Rocket 4.5 19:20:48 10° SSW 19:26:43 72° WNW 19:29:25 34° N
Cosmos 1371 Rocket 3.9 19:22:47 10° S 19:28:06 79° ESE 19:28:19 77° ENE
Meteor 2-16 Rocket 4.3 19:24:02 10° N 19:30:08 86° E 19:36:13 10° S
Mugunghwa Rocket 4.4 19:23:04 10° WSW 19:30:56 68° S 19:32:41 52° ESE
Meteor 1-23 Rocket 4.1 19:33:38 10° S 19:39:24 89° WNW 19:39:44 80° N
Cosmos 1535 Rocket 4.4 19:36:04 10° N 19:42:23 87° W 19:48:34 10° S
Cosmos 2082 Rocket 4.1 19:38:26 10° N 19:39:41 17° N 19:39:41 17° N
Timation 2 Rocket 4.2 19:38:53 10° NNW 19:44:53 65° NNE 19:44:53 65° NNE
Hubble Space Telescope 3.5 19:51:39 10° WSW 19:53:39 14° SSW 19:53:39 14° SSW
Meteor 2-4 Rocket 4.5 19:54:21 10° SSW 19:59:34 46° W 20:00:10 44° WNW
ATLAS 2AS CENTAUR R/B 4.2 20:00:42 10° NW 20:07:43 37° WSW 20:14:12 10° S
